{"data":{"norad_id":87730,"epoch":"2026-05-23T15:04:48.611424Z","epoch_age_seconds":189438,"freshness":"STALE","line1":"1 87730U          26143.62834041  .00000081  00000+0  69261-4 0  9995","line2":"2 87730  82.9428 114.3387 0028409 273.1338  86.6567 13.74532764607572","mean_motion":13.74532764,"eccentricity":0.0028409,"inclination_deg":82.9428,"raan_deg":114.3387,"arg_perigee_deg":273.1338,"mean_anomaly_deg":86.6567,"bstar":6.9261e-5,"rev_number":60757,"period_min":104.76287198928,"perigee_km":962.42933050332,"apogee_km":1004.2557850547,"semimajor_km":7361.479557779,"source":"CELESTRAK","updated_at":"2026-05-25T13:38:11.677789Z"}}